Location: Zihuatanejo
(17.6330°N, 101.5500°W)
Time: 11:51:42
(UTC-05:00)

Hubble Space Telescope - Visible Passes

Search period start: 20 October 2019 00:00
Search period end: 30 October 2019 00:00
Orbit: 536 x 540 km, 28.5° (Epoch: 19 October)

Date Brightness Start Highest point End Pass type
(mag) Time Alt. Az. Time Alt. Az. Time Alt. Az.
22 Oct 3.1 07:13:13 10° SSW 07:16:25 22° SSE 07:19:38 10° E visible
23 Oct 2.5 07:02:12 10° SSW 07:05:49 29° SSE 07:09:26 10° E visible
24 Oct 1.9 06:51:21 10° SW 06:55:13 40° SSE 06:59:06 10° E visible
25 Oct 1.3 06:41:23 15° SW 06:44:38 56° SSE 06:48:40 10° ENE visible
26 Oct 0.8 06:32:03 29° SW 06:34:03 77° SSE 06:38:10 10° ENE visible
27 Oct 0.6 06:22:38 54° W 06:23:29 80° NNW 06:27:36 10° ENE visible
28 Oct 0.8 06:13:06 60° N 06:13:06 60° N 06:17:01 10° ENE visible
29 Oct 1.8 06:03:29 37° NNE 06:03:29 37° NNE 06:06:23 10° NE visible
